Location: Radomski Observatory
(40.2854°N, 79.5145°W)
Time: 20:32:48
(UTC-04:00)

Daily predictions for brighter satellites

Satellite Brightness Start Highest point End
(mag) Time Altitude Azimuth Time Altitude Azimuth Time Altitude Azimuth
ATLAS 5 CENTAUR R/B 4.0 21:07:02 10° N 21:11:29 21° NE 21:16:12 10° E
Tsikada Rocket 4.0 21:07:29 10° S 21:13:42 80° E 21:19:54 10° N
YAOGAN 6 3.2 21:13:41 10° SE 21:17:12 41° ENE 21:20:42 10° N
Tiangong 2 1.1 21:19:04 10° WNW 21:22:17 89° N 21:25:25 11° ESE
USA 186 3.0 21:20:28 10° SSW 21:22:54 35° W 21:25:31 10° NNW
Meteor 2-10 Rocket 4.2 21:18:40 10° NNW 21:24:28 67° W 21:30:11 10° S
Cosmos 2034 Rocket 4.5 21:18:33 10° NNW 21:24:41 65° W 21:30:45 10° S
Aureole 3 4.2 21:22:36 10° SE 21:24:52 19° E 21:27:04 10° NE
Meteor 2-3 Rocket 3.7 21:21:24 10° S 21:27:05 70° E 21:32:44 10° NNE
GPS 2-04 Rocket1 3.1 21:24:17 10° WSW 21:27:47 38° S 21:30:49 12° ESE
COSMOS 2487 4.2 21:24:46 10° NW 21:27:57 31° WSW 21:31:07 10° SSW
Meteor 1-26 Rocket 4.3 21:22:59 10° N 21:28:40 84° E 21:34:24 10° S
ARGOS 4.3 21:24:50 10° ESE 21:29:18 27° ENE 21:33:46 10° N
Cosmos 2084 4.2 21:25:48 10° NNW 21:29:18 34° NE 21:32:31 12° ESE
Cosmos 1782 4.1 21:28:17 10° NNE 21:31:35 24° ENE 21:34:14 13° SE
Helios 1B rocket 2.4 21:27:57 10° NNE 21:32:03 64° ESE 21:36:06 10° S
Cosmos 1634 Rocket 4.2 21:27:38 10° N 21:33:52 59° E 21:40:05 10° SSE
Cosmos 2082 Rocket 4.0 21:30:29 10° NW 21:35:17 29° WSW 21:40:06 10° SSW
H-2A R/B 3.6 21:32:37 11° ESE 21:36:25 22° ENE 21:40:23 10° NNE
Cosmos 1937 Rocket 4.1 21:34:30 10° SSW 21:39:34 61° WNW 21:44:40 10° NNE
CZ-4B DEB 2.5 21:37:45 12° SSE 21:40:20 65° ENE 21:43:15 10° N
Cosmos 2344 4.2 21:34:36 10° S 21:41:11 32° ESE 21:48:04 10° NE
Lacrosse 4 Rocket 3.5 21:38:14 10° N 21:41:22 18° NE 21:44:24 10° E
Cosmos 1408 3.5 21:42:05 15° SSE 21:44:35 30° E 21:47:53 10° NNE
Meteor 1-29 2.9 21:43:33 10° NNE 21:47:04 79° ESE 21:50:32 10° S
Cosmos 1825 3.0 21:45:47 16° SSE 21:48:12 31° E 21:51:35 10° NNE
TIMED 4.4 21:46:55 10° S 21:51:15 71° ESE 21:55:37 10° NNE
Shenzhou-11 Module 2.5 21:50:40 10° W 21:53:38 46° SSW 21:55:05 24° SE
Resurs 01 Rocket 4.2 21:50:53 10° SW 21:54:04 19° W 21:57:17 10° NW
Helios 1A 3.8 21:56:34 10° S 22:00:36 49° W 22:04:42 10° NNW
Molniya-1 2.4 21:59:34 10° SW 22:03:05 - NNE 22:01:09 60° WSW
Cosmos 1892 4.3 21:59:11 10° SW 22:02:45 36° WNW 22:06:20 10° N
MetOp-A 4.1 22:01:47 17° SSE 22:05:58 73° ENE 22:11:19 10° N
COSMOS 2455 3.0 22:00:21 10° SSW 22:06:21 77° WNW 22:12:24 10° NNE
ERS-1 Rocket 2.9 22:03:27 15° SSE 22:07:36 89° ENE 22:12:40 10° NNW
Cosmos 2279 Rocket 4.0 22:02:42 10° N 22:08:57 65° E 22:13:33 19° SSE
Cosmos 1943 Rocket 2.2 22:06:09 10° S 22:11:38 60° ESE 22:17:07 10° NNE
Cosmos 1048 Rocket 4.2 22:07:43 10° N 22:12:59 56° ENE 22:15:52 25° SE
Cosmos 2263 4.2 22:09:10 10° SSW 22:14:55 81° ESE 22:20:41 10° NNE
NOAA 11 4.3 22:13:36 15° S 22:18:09 76° WSW 22:23:40 10° NNW
deb Kosmos-1763 4.4 22:15:30 10° N 22:19:11 52° ENE 22:20:24 35° ESE
USA 215 3.2 22:19:36 23° SE 22:23:57 89° NE 22:30:34 10° NW
Milstar 3 3.9 22:14:44 10° SW 22:24:19 33° S 22:27:31 25° SE
Cosmos 1340 2.7 22:21:02 10° N 22:24:48 62° ENE 22:25:58 40° SE
Okean 1-7 3.5 22:21:54 10° NNW 22:26:16 61° W 22:29:17 19° S
Lacrosse 5 rocket 1.8 22:25:35 10° WSW 22:29:05 51° NW 22:32:41 10° NE
Cosmos 2369 Rocket 2.9 22:23:57 10° SW 22:29:29 55° WNW 22:35:05 10° NNE
Cosmos 1833 4.5 22:28:03 10° NNW 22:33:46 58° ENE 22:36:20 32° SE
SPOT 1/Viking Rocket 3.6 22:31:52 31° SE 22:34:17 67° ENE 22:39:28 10° N
Cosmos 1606 3.1 22:31:57 10° NNW 22:35:40 58° W 22:37:21 29° SSW
Landsat 7 4.3 22:34:09 33° ESE 22:35:42 45° ENE 22:40:15 10° N
SL-08 RB Rocket 3.7 22:35:00 32° SSE 22:37:11 89° WSW 22:41:53 10° NNW
DNEPR-1 R/B 4.0 22:32:44 10° SW 22:38:02 75° WNW 22:42:33 10° NNE
GEOS 3 Rocket 4.3 22:38:07 27° ESE 22:40:32 44° NE 22:45:29 10° NNW
ISS -1.9 22:41:20 10° W 22:44:17 31° NNW 22:47:14 10° NE
Cosmos 1269 Rocket 4.0 22:41:14 10° NNW 22:46:32 80° WSW 22:48:45 36° S
Meteor 1-27 Rocket 3.7 22:40:48 10° N 22:46:36 86° E 22:49:13 34° S
Cosmos 372 Rocket 4.2 22:41:46 10° SSW 22:46:52 68° WNW 22:51:59 10° NNE
Cosmos 1733 Rocket 2.9 22:45:53 45° SSE 22:47:05 74° E 22:51:25 10° NNE
Terra 2.3 22:49:48 38° ESE 22:50:50 45° ENE 22:55:23 10° N
Cosmos 1125 Rocket 4.3 22:47:44 10° SW 22:52:50 50° WNW 22:57:55 10° N
CENTAUR R/B 2.9 22:47:05 10° SW 22:53:02 65° NW 22:59:53 10° NNE
Nimbus 7 Rocket 4.3 22:49:56 10° NNE 22:55:51 90° WNW 22:59:42 23° SSW
ATLAS 5 CENTAUR R/B 2.4 22:50:48 10° NW 22:56:53 88° WSW 22:59:28 39° SSE
Cosmos 1437 4.2 22:55:17 10° N 22:57:24 29° NE 22:57:24 29° NE
Tiangong 2 3.4 22:56:28 10° W 22:57:47 17° WSW 22:57:47 17° WSW
SPOT 5 3.7 22:58:43 27° SSW 23:01:28 52° W 23:06:40 10° NNW
Cosmos 2026 Rocket 4.5 23:04:33 37° ESE 23:05:38 40° E 23:11:22 10° NNE
Meteor 2-20 4.3 23:03:29 39° S 23:05:54 74° E 23:12:01 10° NNE
GPS 2-04 Rocket1 4.4 23:03:54 10° WSW 23:05:16 19° WSW 23:05:16 19° WSW
ARGOS 4.2 23:06:21 21° SSW 23:09:21 38° W 23:14:21 10° NNW
Cosmos 1975 Rocket 4.4 23:07:12 10° NNE 23:10:46 27° ENE 23:10:46 27° ENE
Cosmos 1867 4.0 23:06:16 10° NNW 23:11:36 51° NE 23:12:56 41° E
Cosmos 1656 Rocket 3.5 23:10:03 36° SSW 23:12:21 85° ESE 23:17:53 10° NNE
H-2A R/B 2.7 23:13:15 32° SSW 23:15:27 51° W 23:20:40 10° NNW
CARTOSAT-1 3.4 23:19:18 81° S 23:19:31 89° WSW 23:23:52 10° NNW
Lacrosse 4 Rocket 1.9 23:16:03 10° NW 23:20:25 52° WSW 23:20:44 51° SW
Spot 4 4.3 23:22:13 46° E 23:22:30 46° ENE 23:27:07 10° N
CZ-4 R/B 4.1 23:19:50 10° NNE 23:23:54 50° ENE 23:23:54 50° ENE
Cosmos 1674 Rocket 3.7 23:20:17 10° NNW 23:24:34 62° W 23:24:54 59° WSW
Cosmos 1378 Rocket 3.5 23:21:44 10° N 23:26:03 72° ENE 23:26:03 72° ENE
Meteor 1-14 Rocket 4.3 23:26:51 57° SE 23:27:51 67° E 23:33:38 10° NNE
Cosmos 494 Rocket 3.8 23:23:12 10° NNW 23:28:28 87° ENE 23:29:03 71° SSE
SL-19 R/B 4.4 23:23:11 10° NNE 23:29:14 77° ESE 23:30:53 51° S
Cosmos 1092 Rocket 4.0 23:27:20 39° SSW 23:29:44 77° W 23:35:54 10° N
ATLAS CENTAUR R/B 3.2 23:33:00 20° NE 23:33:00 20° NE 23:34:22 10° NE
H-2A R/B 2.1 23:37:08 68° N 23:37:08 68° N 23:40:45 10° NNW
Cosmos 1627 Rocket 4.4 23:35:55 56° S 23:37:21 81° E 23:43:42 10° N
Cosmos 2227 Rocket 3.6 23:33:30 10° N 23:38:11 26° NE 23:39:30 24° ENE
Cosmos 2219 3.1 23:37:09 10° NNW 23:42:55 77° ENE 23:43:36 67° ESE
CZ-2C R/B 4.0 23:38:40 10° NE 23:41:46 24° ENE 23:41:46 24° ENE
Cosmos 1553 Rocket 4.3 23:39:22 10° N 23:45:33 51° ENE 23:46:20 48° ESE
CZ-4B R/B 3.5 23:41:33 10° NNE 23:46:05 64° ENE 23:46:05 64° ENE
Cosmos 1812 3.6 23:43:18 10° N 23:46:07 46° N 23:46:07 46° N
CZ-4C R/B 4.1 23:53:17 51° NNE 23:53:17 51° NNE 23:56:40 10° N
Okean 3 4.4 23:52:00 10° NNW 23:55:33 41° WNW 23:55:33 41° WNW
